GW2585 Weather Reports


Display with metric or nautical units.
time (UTC)temp
F
wind
direction
speed
MPH
gust
MPH
rain 1hr
in
rain 24hr
in
rain mn
in
humidity
%
barometer
mb
20260505200147 54 131 3.0 6.0 0.00 0.00 0.00 74 1008.0
20260505195643 54 251 3.0 4.0 0.00 0.00 0.00 73 1008.1
20260505195141 54 209 3.0 4.0 0.00 0.00 0.00 74 1008.3
20260505194638 54 143 4.0 6.0 0.00 0.00 0.00 73 1008.4
20260505194134 54 169 2.0 3.0 0.00 0.00 0.00 74 1008.3
20260505193631 54 151 3.0 3.0 0.00 0.00 0.00 74 1008.2
20260505193128 54 108 1.0 2.0 0.00 0.00 0.00 74 1008.3
20260505192626 54 187 1.0 2.0 0.00 0.00 0.00 75 1008.0
20260505192123 54 85 4.0 6.0 0.00 0.00 0.00 75 1008.1
20260505191621 54 182 1.0 2.0 0.00 0.00 0.00 75 1007.9
20260505191119 54 283 2.0 3.0 0.00 0.00 0.00 75 1007.7
20260505190614 55 57 2.0 3.0 0.00 0.00 0.00 74 1007.9
20260505190109 55 154 2.0 2.0 0.00 0.00 0.00 75 1008.0
20260505185601 55 171 2.0 3.0 0.00 0.00 0.00 74 1007.9
20260505185057 55 105 2.0 4.0 0.00 0.00 0.00 74 1007.7
20260505184554 55 178 1.0 1.0 0.00 0.00 0.00 74 1007.5
20260505184051 55 130 0.0 1.0 0.00 0.00 0.00 74 1007.6
20260505183548 55 252 2.0 3.0 0.00 0.00 0.00 74 1007.4
20260505183045 55 60 1.0 2.0 0.00 0.00 0.00 76 1007.3
20260505182541 55 162 1.0 1.0 0.00 0.00 0.00 77 1007.3
20260505182038 55 142 4.0 4.0 0.00 0.00 0.00 77 1007.2
20260505181535 55 67 1.0 2.0 0.00 0.00 0.00 78 1007.2
20260505181032 55 122 3.0 6.0 0.00 0.00 0.00 79 1007.1
20260505180527 55 104 2.0 2.0 0.00 0.00 0.00 79 1007.2
20260505180026 55 239 2.0 3.0 0.00 0.00 0.00 80 1007.2
20260505175525 55 55 2.0 2.0 0.00 0.00 0.00 81 1007.1
20260505175023 55 87 3.0 4.0 0.00 0.00 0.00 81 1006.9
20260505174520 55 72 0.0 1.0 0.00 0.00 0.00 81 1007.2
20260505174016 55 113 0.0 1.0 0.00 0.00 0.00 81 1006.9
20260505173513 55 203 2.0 3.0 0.00 0.00 0.00 82 1007.0
20260505173010 55 162 3.0 3.0 0.00 0.00 0.00 81 1006.9
20260505172508 55 118 1.0 1.0 0.00 0.00 0.00 81 1006.7
20260505172003 55 160 2.0 2.0 0.00 0.00 0.00 82 1006.9
20260505171459 55 142 2.0 4.0 0.00 0.00 0.00 82 1006.9
20260505170956 55 148 3.0 3.0 0.00 0.00 0.00 81 1006.7
20260505170453 55 105 1.0 1.0 0.00 0.00 0.00 81 1006.5
20260505165948 55 177 2.0 3.0 0.00 0.00 0.00 81 1006.4
20260505165444 56 216 2.0 2.0 0.00 0.00 0.00 81 1006.1
20260505164940 56 188 2.0 3.0 0.00 0.00 0.00 81 1005.9
20260505164437 56 213 2.0 3.0 0.00 0.00 0.00 81 1005.9
20260505163934 55 130 0.0 1.0 0.00 0.00 0.00 82 1005.8
20260505163433 55 151 2.0 4.0 0.00 0.00 0.00 81 1005.8
20260505162932 55 107 2.0 6.0 0.00 0.00 0.00 82 1005.7
20260505162427 55 71 5.0 6.0 0.00 0.00 0.00 82 1005.6
20260505161924 56 115 0.0 1.0 0.00 0.00 0.00 82 1005.5
20260505161421 56 249 1.0 2.0 0.00 0.00 0.00 83 1005.3
20260505160919 55 14 2.0 2.0 0.00 0.00 0.00 83 1005.0
20260505160416 55 181 1.0 2.0 0.00 0.00 0.00 83 1005.2
20260505153355 56 141 0.0 1.0 0.00 0.00 0.00 84 1004.4
20260505152852 56 275 1.0 2.0 0.00 0.00 0.00 84 1004.4
20260505152349 56 161 1.0 1.0 0.00 0.00 0.00 85 1004.4
20260505151843 56 213 3.0 4.0 0.00 0.00 0.00 85 1004.4
20260505151340 56 126 2.0 2.0 0.00 0.00 0.00 85 1004.4
20260505150837 57 193 2.0 4.0 0.00 0.00 0.00 85 1004.2
20260505150334 57 61 2.0 3.0 0.00 0.00 0.00 85 1004.0
20260505140259 64 76 2.0 6.0 0.00 0.00 0.00 86 1002.3
20260505130223 66 82 1.0 1.0 0.00 0.00 0.00 85 1001.2
20260505124713 66 63 0.0 1.0 0.00 0.00 0.00 86 1001.2
20260505124209 66 142 1.0 2.0 0.00 0.00 0.00 86 1001.6
20260505123705 66 111 0.0 0.0 0.00 0.00 0.00 86 1001.2
20260505123203 66 124 1.0 1.0 0.00 0.00 0.00 87 1001.2
20260505122659 65 178 0.0 1.0 0.00 0.00 0.00 87 1000.8
20260505122156 65 145 1.0 1.0 0.00 0.00 0.00 87 1000.5
20260505121652 65 137 0.0 0.0 0.00 0.00 0.00 87 1000.6
20260505121149 65 180 3.0 4.0 0.00 0.00 0.00 87 1000.6
20260505120645 65 99 1.0 2.0 0.00 0.00 0.00 87 1000.6
20260505120142 65 172 2.0 3.0 0.00 0.00 0.00 87 1000.6
20260505115635 65 33 3.0 4.0 0.00 0.00 0.00 87 1000.6
20260505115133 65 112 1.0 2.0 0.00 0.00 0.00 88 1000.7
20260505114624 65 145 1.0 2.0 0.00 0.00 0.00 88 1000.5
20260505114121 64 105 1.0 1.0 0.00 0.00 0.00 88 1000.6
20260505113617 64 111 0.0 1.0 0.00 0.00 0.00 88 1000.6
20260505113114 64 352 1.0 1.0 0.00 0.00 0.00 88 1000.5
20260505112610 64 83 1.0 2.0 0.00 0.00 0.00 88 1000.3
20260505112108 64 113 0.0 1.0 0.00 0.00 0.00 88 1000.3
20260505111602 64 107 0.0 0.0 0.00 0.00 0.00 88 1000.2
20260505111058 65 109 0.0 0.0 0.00 0.00 0.00 88 1000.0
20260505110555 65 133 0.0 0.0 0.00 0.00 0.00 88 1000.2
20260505102027 66 114 0.0 0.0 0.00 0.00 0.00 89 999.8
20260505101526 66 141 0.0 1.0 0.00 0.00 0.00 89 999.8
20260505101022 66 144 0.0 0.0 0.00 0.00 0.00 89 999.7
20260505100519 66 113 0.0 0.0 0.00 0.00 0.00 89 999.5
20260505100016 66 123 0.0 0.0 0.00 0.00 0.00 89 999.3
20260505095512 66 112 0.0 0.0 0.00 0.00 0.00 89 999.2
20260505095008 66 117 0.0 0.0 0.00 0.00 0.00 89 998.9
20260505094505 66 104 0.0 0.0 0.00 0.00 0.00 88 998.9
20260505094001 66 118 0.0 0.0 0.00 0.00 0.00 88 998.8
20260505093458 66 92 0.0 0.0 0.00 0.00 0.00 88 998.8
20260505092955 67 94 0.0 0.0 0.00 0.00 0.00 87 998.5
20260505092452 67 141 0.0 1.0 0.00 0.00 0.00 87 998.5
20260505091950 67 127 0.0 0.0 0.00 0.00 0.00 87 998.6
20260505091447 67 131 0.0 0.0 0.00 0.00 0.00 87 998.5
20260505090945 67 56 2.0 3.0 0.00 0.00 0.00 86 998.6
20260505090443 67 128 0.0 1.0 0.00 0.00 0.00 86 998.6
20260505085940 68 174 0.0 0.0 0.00 0.00 0.00 86 998.7
20260505085438 68 140 0.0 1.0 0.00 0.00 0.00 86 998.6
20260505084936 68 103 0.0 1.0 0.00 0.00 0.00 86 998.8
20260505084434 68 127 0.0 0.0 0.00 0.00 0.00 86 998.9
20260505083932 68 85 0.0 1.0 0.00 0.00 0.00 86 998.8
20260505083429 68 118 0.0 0.0 0.00 0.00 0.00 86 998.7
20260505082925 68 101 1.0 1.0 0.00 0.00 0.00 86 999.0
20260505082421 68 119 1.0 1.0 0.00 0.00 0.00 86 998.9
20260505081918 68 87 0.0 0.0 0.00 0.00 0.00 85 998.9
20260505081415 68 104 0.0 0.0 0.00 0.00 0.00 85 998.8
20260505080911 68 111 0.0 0.0 0.00 0.00 0.00 85 999.2
20260505080408 68 134 0.0 1.0 0.00 0.00 0.00 85 999.2
20260505075903 69 111 0.0 0.0 0.00 0.00 0.00 84 999.3
20260505075400 69 108 0.0 0.0 0.00 0.00 0.00 84 999.3
20260505074857 69 117 0.0 0.0 0.00 0.00 0.00 84 999.2
20260505074354 69 121 0.0 0.0 0.00 0.00 0.00 84 999.3
20260505073852 69 89 0.0 1.0 0.00 0.00 0.00 84 999.2
20260505073349 69 113 0.0 0.0 0.00 0.00 0.00 84 999.3
20260505072846 69 124 0.0 1.0 0.00 0.00 0.00 84 999.2
20260505072342 69 98 0.0 1.0 0.00 0.00 0.00 83 999.5
20260505071839 69 122 1.0 1.0 0.00 0.00 0.00 83 999.6
20260505071335 69 107 0.0 0.0 0.00 0.00 0.00 82 999.7
20260505070833 69 106 0.0 0.0 0.00 0.00 0.00 82 999.7
20260505070329 70 106 0.0 0.0 0.00 0.00 0.00 82 999.5
20260505065825 70 149 0.0 1.0 0.00 0.00 0.00 81 999.7
20260505065322 70 101 0.0 1.0 0.00 0.00 0.00 81 999.6
20260505064819 70 99 0.0 0.0 0.00 0.00 0.00 80 999.9
20260505064316 70 130 1.0 1.0 0.00 0.00 0.00 80 999.7
20260505063814 71 98 0.0 1.0 0.00 0.00 0.00 80 1000.1
20260505063310 71 111 0.0 0.0 0.00 0.00 0.00 79 999.8
20260505062806 71 100 0.0 0.0 0.00 0.00 0.00 79 999.9
20260505062304 71 254 2.0 2.0 0.00 0.00 0.00 78 999.7
20260505061801 71 112 0.0 0.0 0.00 0.00 0.00 78 999.5
20260505061259 71 123 2.0 3.0 0.00 0.00 0.00 77 999.4
20260505060756 71 66 2.0 3.0 0.00 0.00 0.00 77 999.4
20260505060253 72 111 0.0 0.0 0.00 0.00 0.00 77 999.3
20260505055748 72 148 3.0 3.0 0.00 0.00 0.00 77 999.6
20260505055245 72 94 1.0 1.0 0.00 0.00 0.00 77 999.4
20260505054742 72 175 2.0 3.0 0.00 0.00 0.00 77 999.6
20260505054239 72 141 1.0 2.0 0.00 0.00 0.00 76 999.6
20260505053738 72 142 1.0 1.0 0.00 0.00 0.00 76 999.6
20260505053234 72 110 1.0 1.0 0.00 0.00 0.00 75 999.5
20260505052731 72 160 2.0 3.0 0.00 0.00 0.00 75 999.4
20260505052228 72 100 0.0 1.0 0.00 0.00 0.00 76 999.8
20260505051725 72 115 0.0 0.0 0.00 0.00 0.00 76 999.6
20260505051223 72 127 1.0 1.0 0.00 0.00 0.00 76 999.6
20260505050721 73 104 1.0 1.0 0.00 0.00 0.00 75 999.7
20260505050219 73 79 1.0 2.0 0.00 0.00 0.00 75 999.8
20260505041648 73 143 1.0 1.0 0.00 0.00 0.00 74 999.9
20260505041146 73 122 1.0 2.0 0.00 0.00 0.00 73 1000.0
20260505040643 73 108 0.0 0.0 0.00 0.00 0.00 73 1000.1
20260505040140 73 128 1.0 2.0 0.00 0.00 0.00 73 1000.5
20260505035636 73 151 1.0 2.0 0.00 0.00 0.00 73 999.9
20260505035132 73 116 1.0 2.0 0.00 0.00 0.00 74 1000.1
20260505034629 73 119 1.0 2.0 0.00 0.00 0.00 74 1000.3
20260505034126 73 257 1.0 1.0 0.00 0.00 0.00 73 1000.3
20260505033623 73 145 0.0 2.0 0.00 0.00 0.00 73 1000.4
20260505033121 73 113 2.0 2.0 0.00 0.00 0.00 72 1000.3
20260505032619 73 176 1.0 2.0 0.00 0.00 0.00 73 1000.4
20260505032115 73 93 2.0 3.0 0.00 0.00 0.00 72 1000.3
20260505031612 73 112 1.0 1.0 0.00 0.00 0.00 72 1000.7
20260505031108 73 128 0.0 0.0 0.00 0.00 0.00 72 1000.4
20260505030606 73 175 1.0 2.0 0.00 0.00 0.00 72 1000.4
20260505025557 74 126 0.0 0.0 0.00 0.00 0.00 72 1000.3
20260505025057 74 114 0.0 1.0 0.00 0.00 0.00 71 1000.4
20260505024553 74 122 0.0 1.0 0.00 0.00 0.00 71 1000.3
20260505024050 74 139 1.0 1.0 0.00 0.00 0.00 71 1000.2
20260505023547 74 124 1.0 2.0 0.00 0.00 0.00 71 1000.6
20260505023045 74 104 0.0 0.0 0.00 0.00 0.00 71 1000.4
20260505022542 74 63 1.0 1.0 0.00 0.00 0.00 71 1000.0
20260505022039 74 120 0.0 1.0 0.00 0.00 0.00 71 1000.3
20260505021536 74 122 0.0 0.0 0.00 0.00 0.00 72 1000.2
20260505021032 74 136 0.0 0.0 0.00 0.00 0.00 71 1000.0
20260505020526 74 68 1.0 2.0 0.00 0.00 0.00 71 1000.1
20260505020024 74 109 0.0 0.0 0.00 0.00 0.00 71 1000.2
20260505015521 74 153 1.0 2.0 0.00 0.00 0.00 70 1000.4
20260505015018 74 137 0.0 0.0 0.00 0.00 0.00 70 1000.3
20260505014515 74 156 1.0 1.0 0.00 0.00 0.00 70 1000.4
20260505014012 74 135 1.0 1.0 0.00 0.00 0.00 69 1000.4
20260505013509 75 89 0.0 0.0 0.00 0.00 0.00 70 1000.5
20260505013006 75 109 1.0 2.0 0.00 0.00 0.00 69 1000.3
20260505012505 75 134 0.0 1.0 0.00 0.00 0.00 68 1000.3
20260505012001 75 91 2.0 2.0 0.00 0.00 0.00 68 1000.4
20260505011456 75 120 1.0 1.0 0.00 0.00 0.00 68 1000.4
20260505010954 76 94 1.0 1.0 0.00 0.00 0.00 67 1000.1
20260505010449 76 153 0.0 1.0 0.00 0.00 0.00 66 1000.5
20260505005946 76 132 0.0 0.0 0.00 0.00 0.00 66 1000.3
20260505005442 76 123 1.0 1.0 0.00 0.00 0.00 65 1000.4
20260505004940 77 163 2.0 3.0 0.00 0.00 0.00 65 1000.5
20260505004437 77 162 2.0 2.0 0.00 0.00 0.00 66 1000.6
20260505003934 77 89 0.0 1.0 0.00 0.00 0.00 66 1000.5
20260505003431 77 126 2.0 3.0 0.00 0.00 0.00 65 1000.2
20260505002927 77 145 2.0 3.0 0.00 0.00 0.00 65 1000.4
20260505002423 77 119 0.0 0.0 0.00 0.00 0.00 65 1000.3
20260505001922 77 104 1.0 2.0 0.00 0.00 0.00 63 1000.5
20260505001419 78 158 2.0 2.0 0.00 0.00 0.00 63 1000.6
20260505000916 78 138 1.0 1.0 0.00 0.00 0.00 62 1000.4
20260505000414 78 117 0.0 0.0 0.00 0.00 0.00 62 1000.4
20260504235910 78 154 1.0 2.0 0.00 0.00 0.00 61 1000.3
20260504235408 78 335 1.0 3.0 0.00 0.00 0.00 61 1000.7
20260504234904 79 130 0.0 1.0 0.00 0.00 0.00 61 1000.7
20260504234402 79 136 2.0 2.0 0.00 0.00 0.00 60 1000.7
20260504233858 79 123 1.0 1.0 0.00 0.00 0.00 61 1000.9
20260504233353 79 84 1.0 2.0 0.00 0.00 0.00 59 1001.1
20260504232850 79 134 0.0 0.0 0.00 0.00 0.00 59 1000.9
20260504232348 79 95 1.0 2.0 0.00 0.00 0.00 58 1001.1
20260504231844 79 121 2.0 2.0 0.00 0.00 0.00 58 1000.9
20260504231341 80 81 1.0 3.0 0.00 0.00 0.00 58 1001.1
20260504230837 80 113 1.0 1.0 0.00 0.00 0.00 58 1000.9
20260504230335 80 196 2.0 4.0 0.00 0.00 0.00 58 1001.2
20260504225833 80 44 1.0 2.0 0.00 0.00 0.00 57 1001.0
20260504225329 80 318 3.0 4.0 0.00 0.00 0.00 56 1001.1
20260504224827 81 84 3.0 4.0 0.00 0.00 0.00 55 1001.3
20260504224324 81 151 2.0 3.0 0.00 0.00 0.00 54 1001.3
20260504223821 81 182 2.0 3.0 0.00 0.00 0.00 54 1001.3
20260504223316 81 127 0.0 1.0 0.00 0.00 0.00 54 1001.2
20260504222813 81 111 2.0 2.0 0.00 0.00 0.00 55 1001.5
20260504222310 81 338 1.0 3.0 0.00 0.00 0.00 53 1001.4
20260504221808 81 158 1.0 1.0 0.00 0.00 0.00 56 1001.4
20260504221304 81 137 1.0 1.0 0.00 0.00 0.00 56 1001.4
20260504220801 81 125 1.0 1.0 0.00 0.00 0.00 55 1001.4
20260504220258 81 133 2.0 2.0 0.00 0.00 0.00 53 1001.4
20260504215756 81 122 0.0 0.0 0.00 0.00 0.00 55 1001.6
20260504215252 81 108 2.0 3.0 0.00 0.00 0.00 54 1001.5
20260504214747 81 152 1.0 1.0 0.00 0.00 0.00 54 1001.5
20260504214244 81 115 1.0 2.0 0.00 0.00 0.00 54 1001.5
20260504213741 82 108 1.0 1.0 0.00 0.00 0.00 54 1001.5
20260504213237 82 120 1.0 1.0 0.00 0.00 0.00 54 1001.6
20260504212735 82 114 1.0 1.0 0.00 0.00 0.00 53 1001.8
20260504212231 82 116 1.0 1.0 0.00 0.00 0.00 54 1001.9
20260504211729 82 126 1.0 2.0 0.00 0.00 0.00 52 1001.9
20260504211225 83 89 0.0 1.0 0.00 0.00 0.00 51 1001.8
20260504210723 83 316 3.0 6.0 0.00 0.00 0.00 51 1002.1
20260504210220 83 201 2.0 3.0 0.00 0.00 0.00 50 1002.2
20260504205716 83 142 1.0 1.0 0.00 0.00 0.00 51 1001.9
20260504205214 83 130 2.0 3.0 0.00 0.00 0.00 51 1002.1
20260504204712 83 197 3.0 6.0 0.00 0.00 0.00 48 1002.2
20260504204210 83 132 2.0 2.0 0.00 0.00 0.00 51 1002.3
20260504203709 84 250 2.0 2.0 0.00 0.00 0.00 50 1002.3
20260504203206 84 139 2.0 3.0 0.00 0.00 0.00 49 1002.2
20260504202700 83 24 2.0 2.0 0.00 0.00 0.00 49 1002.3
20260504202158 83 137 3.0 6.0 0.00 0.00 0.00 49 1002.3
20260504201655 82 82 3.0 6.0 0.00 0.00 0.00 49 1002.5
20260504201152 83 145 3.0 4.0 0.00 0.00 0.00 48 1002.5
20260504200650 82 64 2.0 2.0 0.00 0.00 0.00 51 1002.8